[TLELIST] Archives

 

[TLELIST] Current TLEs

May 14th 2023 PDT

HST 1 20580U 90037B 23134.28596731 .00004379 00000-0 23122-3 0 9994 2 20580 28.4684 133.5338 0002414 17.8037 3.3547 15.13022088616580 ISS (ZARYA) 1 25544U 98067A 23134.36702060 .00013544 00000-0 24307-3 0 9993 2 25544 51.6405 136.1629 0006559 347.0403 154.1104 15.50197738396546 CXO 1 25867U 99040B 23136.22730015 .00000537 00000-0 00000-0 0 9990 2 25867 37.9070 201.0686 9048472 258.8950 0.1468 0.37811144 13068 ...Continue Reading

[TLELIST] Current TLEs

May 13th 2023 PDT

HST 1 20580U 90037B 23132.72916061 .00004773 00000-0 25303-3 0 9994 2 20580 28.4683 143.8886 0002329 0.0579 164.5370 15.13009840616081 ISS (ZARYA) 1 25544U 98067A 23133.33312763 .00014456 00000-0 25911-3 0 9991 2 25544 51.6398 141.2855 0006376 344.0215 143.5192 15.50172069396381 CXO 1 25867U 99040B 23133.58197526 .00000729 00000-0 00000-0 0 9993 2 25867 37.9294 201.3797 9044662 258.6477 359.9772 0.37810649 13052 ...Continue Reading

[TLELIST] Current TLEs

May 12th 2023 PDT

HST 1 20580U 90037B 23131.73731687 .00004860 00000-0 25789-3 0 9998 2 20580 28.4683 150.4855 0002277 348.8714 162.5883 15.13001322615934 ISS (ZARYA) 1 25544U 98067A 23132.42640824 .00014922 00000-0 26744-3 0 9995 2 25544 51.6400 145.7781 0006355 339.7698 124.4230 15.50147384396243 CXO 1 25867U 99040B 23133.58197526 .00000729 00000-0 00000-0 0 9993 2 25867 37.9294 201.3797 9044662 258.6477 359.9772 0.37810649 13052 ...Continue Reading

[TLELIST] Current TLEs

May 11th 2023 PDT

HST 1 20580U 90037B 23130.81727909 .00005400 00000-0 28770-3 0 9992 2 20580 28.4682 156.6049 0002246 338.4072 191.8380 15.12994430615795 ISS (ZARYA) 1 25544U 98067A 23131.19871300 .00014296 00000-0 25692-3 0 9998 2 25544 51.6398 151.8612 0006368 334.3982 114.1558 15.50107618396055 CXO 1 25867U 99040B 23133.58140069 .00000729 00000-0 00000-0 0 9993 2 25867 37.9313 201.3874 9044644 258.6391 359.8996 0.37812370 13044 ...Continue Reading

[TLELIST] Current TLEs

May 10th 2023 PDT

HST 1 20580U 90037B 23128.83762876 .00005125 00000-0 27269-3 0 9999 2 20580 28.4679 169.7723 0002180 315.2814 210.8776 15.12975706615492 ISS (ZARYA) 1 25544U 98067A 23129.52382288 .00015688 00000-0 28157-3 0 9999 2 25544 51.6404 160.1596 0006193 328.0352 127.9636 15.50062205395795 CXO 1 25867U 99040B 23130.93893088 .00000853 00000-0 00000-0 0 9993 2 25867 37.9456 201.6556 9042979 258.4339 0.0628 0.37814646 13046 ...Continue Reading

[TLELIST] Current TLEs

May 9th 2023 PDT

HST 1 20580U 90037B 23128.83762876 .00005125 00000-0 27269-3 0 9999 2 20580 28.4679 169.7723 0002180 315.2814 210.8776 15.12975706615492 ISS (ZARYA) 1 25544U 98067A 23129.33311206 .00014447 00000-0 26005-3 0 9992 2 25544 51.6399 161.1075 0006170 327.2163 143.8663 15.50052739395762 CXO 1 25867U 99040B 23130.93893088 .00000853 00000-0 00000-0 0 9993 2 25867 37.9456 201.6556 9042979 258.4339 0.0628 0.37814646 13046 ...Continue Reading

[TLELIST] Current TLEs

May 8th 2023 PDT

HST 1 20580U 90037B 23127.84728686 .00005204 00000-0 27713-3 0 9992 2 20580 28.4681 176.3594 0002155 302.7922 218.5524 15.12966975615346 ISS (ZARYA) 1 25544U 98067A 23128.36648160 .00016506 00000-0 29616-3 0 9995 2 25544 51.6403 165.8950 0006319 322.4824 151.1066 15.50027773395610 CXO 1 25867U 99040B 23128.29517542 .00000879 00000-0 00000-0 0 9995 2 25867 37.9777 201.9869 9042367 258.1730 0.0419 0.37816979 13022 ...Continue Reading

[TLELIST] Current TLEs

May 7th 2023 PDT

HST 1 20580U 90037B 23127.16408481 .00005134 00000-0 27329-3 0 9990 2 20580 28.4682 180.9031 0002125 294.2189 98.5536 15.12960827615508 ISS (ZARYA) 1 25544U 98067A 23127.40311006 .00017707 00000-0 31739-3 0 9998 2 25544 51.6411 170.6683 0006392 318.6060 175.7807 15.49998119395463 CXO 1 25867U 99040B 23128.29517542 .00000879 00000-0 00000-0 0 9995 2 25867 37.9777 201.9869 9042367 258.1730 0.0419 0.37816979 13022 ...Continue Reading

[TLELIST] Current TLEs

May 6th 2023 PDT

HST 1 20580U 90037B 23125.86683970 .00004581 00000-0 24284-3 0 9995 2 20580 28.4683 189.5307 0002102 278.2736 234.8308 15.12948668615045 ISS (ZARYA) 1 25544U 98067A 23126.17142299 .00012492 00000-0 22683-3 0 9991 2 25544 51.6413 176.7674 0006059 312.5170 144.6305 15.49949220395273 CXO 1 25867U 99040B 23128.29517542 .00000879 00000-0 00000-0 0 9995 2 25867 37.9777 201.9869 9042367 258.1730 0.0419 0.37816979 13022 ...Continue Reading

[TLELIST] Current TLEs

May 5th 2023 PDT

HST 1 20580U 90037B 23124.52340742 .00004518 00000-0 23943-3 0 9995 2 20580 28.4687 198.4653 0002105 261.3159 120.1108 15.12937337614840 ISS (ZARYA) 1 25544U 98067A 23125.19374818 -.00169740 00000-0 -30424-2 0 9998 2 25544 51.6388 181.6167 0006015 309.1398 89.1969 15.49870072395123 CXO 1 25867U 99040B 23125.65058234 .00000907 00000-0 00000-0 0 9992 2 25867 38.0106 202.2774 9042564 257.9517 359.9085 0.37818091 13019 ...Continue Reading
  • This mailing list is a public mailing list - anyone may join or leave, at any time.
  • This mailing list is announce-only.

International Space Station (ISS) / Hubble Space Telescope (HST) / Chandra X-Ray Observatory Orbital Data via EMAIL

Privacy Policy:

Private list